Погода в Иббе

Йемен     13°58′22″N   44°10′25″E
темп.,
°C
ветер,
м/с
пор.,
м/с
влажн.,
%
обл.,
%
осадки,
мм/ч
давл.,
гПа
погр.,
м
9 декабря, чт
чт900:00+12ссз22610 0.0 102015
03:00+10с22220 0.0 101910
06:00+9ссв11150 0.0 102010
09:00+17юв1170 0.0 1020487
12:00+21ю2470 0.0 10171713
15:00+21ююз23110 0.0 10141574
18:00+16юз22450 0.0 1017146
21:00+13вюв11680 0.0 102094
10 декабря, пт
пт1000:00+11ссз22660 0.0 102033
03:00+9ссв11490 0.0 102010
06:00+8всв11190 0.0 102010
09:00+16юв11100 0.0 1021498
12:00+20ююв3480 0.0 10171637
15:00+21ююв3490 0.0 10141766
18:00+16ююз12290 0.0 101722
21:00+12юв22560 0.0 102140
11 декабря, сб
сб1100:00+10всв11520 0.0 102011
03:00+9св11370 0.0 101911
06:00+8св22280 0.0 102110
09:00+15вюв22160 0.0 1020481
12:00+19ююв33140 0.0 10171368
15:00+20юв44170 0.0 10151621
18:00+16ююв23250 0.0 101744
21:00+11вюв33450 0.0 102273
12 декабря, вс
вс1200:00+10в22490 0.0 102126
03:00+9в22430 0.0 102013
06:00+8в22440 0.0 102211
09:00+15вюв22250 0.0 1022498
12:00+19ююв32170 0.0 10181419
15:00+20ю22170 0.0 10151925
18:00+16юз22320 0.0 101831
21:00+12вюв22530 0.0 102131
13 декабря, пн
пн1300:00+11в22540 0.0 102023
03:00+10всв12430 0.0 101910
06:00+9в11410 0.0 102010
09:00+16ююв11240 0.0 1020600
12:00+20ююз22170 0.0 10161701
15:00+21юз22200 0.0 10131779
18:00+16ююз12420 0.0 101674
21:00+13вюв22670 0.0 101992